#timestamp,LO_Frequency,Hit,StdDev 
1604196015.4,286046999.8,N
1604196035.2,286047002.2,N
1604196055.1,286047002.3,N
1604196056.0,286047002.3,N
1604196075.8,286047002.5,N
1604196095.6,286046999.8,N
1604196115.5,286047002.2,N
1604196135.3,286047000.4,N
1604196155.2,286046998.1,N
1604196175.9,286047000.3,N
1604196195.7,286047000.2,N
1604196215.6,286047001.0,N
1604196235.4,286046998.9,N
1604196255.3,286046998.3,N
1604196275.1,286046998.8,N
1604196276.0,286046998.8,N
1604196295.8,286046999.2,N
1604196315.7,286046999.0,N
1604196335.5,286046999.2,N
1604196355.3,286046999.2,N
1604196375.2,286046999.4,N
1604196395.0,286046999.0,N
1604196395.9,286046999.0,N
1604196415.8,286047000.8,N
1604196435.6,286047000.7,N
1604196455.4,286046998.5,N
1604196475.3,286047000.9,N
1604196495.1,286046998.1,N
1604196515.9,286046998.2,N
1604196535.7,286046998.2,N
1604196555.5,286047000.8,N
1604196575.4,286046998.7,N
1604196595.2,286046999.0,N
1604196615.0,286046998.2,N
1604196615.9,286046998.2,N
1604196635.8,286046999.2,N
1604196655.6,286047001.1,N
1604196675.5,286047000.8,N
1604196695.3,286047000.6,N
1604196715.1,286047002.1,N
1604196735.9,286047004.0,Y
1604196755.7,286047005.3,P
1604196775.6,286047005.2,N
1604196795.4,286047009.2,P
1604196815.2,286047009.1,N
1604196835.1,286047009.1,N
1604196836.0,286047009.1,N
1604196855.8,286047008.1,N
1604196875.6,286047007.7,N
1604196895.5,286047009.1,N
1604196915.3,286047006.1,N
1604196935.2,286047006.4,N
1604196955.9,286047007.0,N
1604196975.7,286047005.0,N
1604196995.6,286047005.8,N
1604197015.4,286047006.0,N
1604197035.2,286047002.9,N
1604197055.1,286047004.4,N
1604197056.0,286047004.4,N
1604197075.8,286047001.5,N
1604197095.7,286047001.5,N
1604197115.5,286047002.0,N
1604197135.3,286047001.8,N
1604197155.2,286047003.0,N
1604197175.0,286047005.5,N
1604197175.9,286047005.5,N
1604197195.8,286047003.5,N
1604197215.6,286047003.1,N
1604197235.4,286047003.1,N
1604197255.3,286047006.0,N
1604197275.1,286047004.7,N
1604197295.8,286047005.8,N
1604197315.7,286047005.5,N
1604197335.5,286047001.9,N
1604197355.4,286047002.4,N
1604197375.2,286047002.1,N
1604197395.0,286047002.8,N
1604197395.9,286047002.8,N
1604197415.8,286047002.5,N
1604197435.6,286047002.7,N
1604197455.4,286047001.8,N
1604197475.3,286047002.0,N
1604197495.1,286047002.0,N
1604197515.9,286047002.1,N
1604197535.7,286047000.0,N
1604197555.5,286047000.0,N
1604197575.4,286047001.4,N
1604197595.2,286047001.5,N
1604197615.1,286047001.8,N
1604197616.0,286047001.8,N
1604197635.8,286046999.8,N
1604197655.6,286046998.5,N
1604197675.5,286046998.8,N
1604197695.3,286046996.6,N
1604197715.1,286046996.7,N
1604197735.9,286046996.5,N
1604197755.7,286046997.0,N
1604197775.6,286046999.6,N
1604197795.4,286046996.6,N
1604197815.2,286046999.3,N
1604197835.1,286046996.5,N
1604197836.0,286046996.5,N
1604197855.8,286046996.5,N
1604197875.6,286046999.6,N
1604197895.5,286046996.6,N
1604197915.3,286046999.4,N
1604197935.2,286046999.3,N
1604197955.9,286046998.1,N
1604197975.7,286046998.8,N
1604197995.6,286046998.8,N
1604198015.4,286046998.9,N
1604198035.3,286046999.0,N
1604198055.1,286046998.8,N
1604198056.0,286046998.8,N
1604198075.8,286046998.7,N
1604198095.7,286047000.1,N
1604198115.5,286046998.5,N
1604198135.3,286046999.4,N
1604198155.2,286046999.0,N
1604198175.0,286046999.2,N
1604198175.9,286046999.2,N
1604198195.8,286046999.1,N
1604198215.6,286047001.2,N
1604198235.4,286046998.5,N
1604198255.3,286046998.4,N
1604198275.1,286046998.3,N
1604198295.9,286047001.0,N
1604198315.7,286046998.1,N
1604198335.5,286046999.3,N
1604198355.4,286046999.1,N
1604198375.2,286046999.0,N
1604198395.0,286046998.8,N
1604198395.9,286046998.8,N
1604198415.8,286047000.3,N
1604198435.6,286047000.4,N
1604198455.5,286047000.9,N
1604198475.3,286046998.1,N
1604198495.1,286047001.2,N
1604198515.9,286047001.1,N
1604198535.7,286047000.8,N
1604198555.5,286047001.2,N
1604198575.4,286046998.2,N
1604198595.2,286046998.2,N
1604198615.1,286047001.0,N
1604198616.0,286047001.0,N
1604198635.8,286047001.1,N
1604198655.6,286047002.3,N
1604198675.5,286046999.8,N
1604198695.3,286047000.0,N
1604198715.2,286046999.7,N
1604198735.9,286047000.0,N
1604198755.7,286047000.9,N
1604198775.6,286047000.0,N
1604198795.4,286047000.2,N
1604198815.2,286047000.3,N
1604198835.1,286047000.1,N
1604198836.0,286047000.1,N
1604198855.8,286047001.0,N
1604198875.7,286046999.3,N
1604198895.5,286047000.7,N
1604198915.3,286047000.1,N
1604198935.2,286047002.5,N
1604198955.0,286046999.7,N
1604198955.9,286046999.7,N
1604198975.8,286047000.0,N
1604198995.6,286046999.7,N
1604199015.4,286047002.5,N
1604199035.3,286047002.2,N
1604199055.1,286047002.2,N
1604199075.8,286047001.5,N
1604199095.7,286047002.3,N
1604199115.5,286047002.7,N
1604199135.4,286047001.4,N
1604199155.2,286047001.5,N
1604199175.0,286047001.5,N
1604199175.9,286047001.5,N
1604199195.8,286047002.2,N
1604199215.6,286047000.2,N
1604199235.5,286047000.8,N
1604199255.3,286047000.0,N
1604199275.1,286047002.6,N
1604199295.9,286047002.0,N
1604199315.7,286047002.1,N
1604199335.5,286046999.7,N
1604199355.4,286047002.7,N
1604199375.2,286047002.3,N
1604199395.1,286047002.1,N
1604199396.0,286047002.1,N
1604199415.8,286047001.4,N
1604199435.6,286047001.5,N
1604199455.5,286047004.0,Y
1604199475.3,286047000.3,P
1604199495.1,286047000.4,N
1604199515.9,286047000.3,N
1604199535.7,286047000.4,N
1604199555.6,286047000.2,N
1604199575.4,286047000.4,N
1604199595.2,286047002.3,Y
